DateTimeUTC,F1_A11,F1_S11,BsB_S11,BsG_S11,BsR_S11,BbsB_S11,BbsG_S11,BbsR_S11,BaB_A11,BaG_A11,BaR_A11,T_S11,U_S11,P_S11,T1_A11
2020-07-30T00:00:00Z,00000380,20000600,,,,,,,,,,24.9,04.3,0669.8,30.9
2020-07-30T00:01:00Z,00000380,20000600,,,,,,,,,,24.9,04.1,0669.8,30.9
2020-07-30T00:02:00Z,00000380,20000600,,,,,,,,,,24.9,04.1,0669.8,30.9
2020-07-30T00:03:00Z,00000380,60000600,,,,,,,,,,24.9,04.1,0669.8,30.9
2020-07-30T00:04:00Z,00000380,40000600,-000.09,0000.96,0000.32,0000.04,0000.24,-000.33,0000.05,-000.02,-000.08,24.7,04.3,0670.7,30.9
2020-07-30T00:05:00Z,00000380,00000600,0000.42,0001.03,0000.41,0000.39,0000.24,0000.02,-000.07,0000.02,0000.05,24.6,04.3,0670.8,30.9
2020-07-30T00:06:00Z,00000380,00000600,0000.93,0000.43,0001.00,-000.19,0000.28,0000.38,0000.07,-000.01,0000.08,24.6,04.2,0670.8,30.9
2020-07-30T00:07:00Z,00000380,00000600,0001.06,0000.88,0000.33,-000.11,0000.46,0000.46,0000.19,0000.16,0000.03,24.6,04.2,0670.8,30.9
2020-07-30T00:08:00Z,00000380,00000600,0000.41,0000.29,0000.17,0000.62,0000.15,-000.03,-000.06,0000.01,0000.00,24.6,04.2,0670.8,30.9
2020-07-30T00:09:00Z,00000380,00000600,0000.02,-000.30,0000.21,0000.60,0000.22,-000.36,0000.11,0000.09,0000.05,24.6,04.3,0670.8,30.9
2020-07-30T00:10:00Z,00000380,00000600,0000.90,0000.55,0000.09,0000.31,0000.20,0000.14,-000.19,-000.01,-000.08,24.6,04.3,0670.8,30.9
2020-07-30T00:11:00Z,00000380,00000600,0000.79,0000.73,0000.35,0000.59,0000.23,0000.09,0000.03,-000.10,-000.09,24.5,04.2,0670.8,30.9
2020-07-30T00:12:00Z,00000380,00000600,0000.02,0000.55,0000.39,-000.14,0000.02,0000.22,-000.17,-000.08,0000.08,24.5,04.1,0670.8,30.9
2020-07-30T00:13:00Z,00000380,00000600,0000.33,0000.72,0000.23,-000.70,0000.37,-000.19,-000.01,-000.06,-000.00,24.5,04.0,0670.8,30.9
2020-07-30T00:14:00Z,00000380,00000600,0000.62,0000.30,0000.02,0000.48,0000.35,-000.27,0000.09,-000.03,-000.02,24.5,04.1,0670.8,31.0
2020-07-30T00:15:00Z,00000380,00000600,0000.60,0000.84,-000.15,0000.78,0000.19,-000.39,0000.13,0000.08,0000.06,24.5,04.0,0670.8,30.9
2020-07-30T00:16:00Z,00000380,00000600,-000.17,0000.78,0000.33,0001.01,0000.52,-000.26,-000.13,-000.06,-000.11,24.5,04.0,0670.8,30.9
2020-07-30T00:17:00Z,00000380,00000600,-000.25,0000.59,0000.12,0001.07,-000.22,0000.03,-000.02,-000.03,0000.07,24.5,04.0,0670.8,30.9
2020-07-30T00:18:00Z,00000380,00000600,0000.10,0000.53,0000.13,-000.12,0000.19,0000.23,0000.00,0000.09,0000.06,24.5,03.9,0670.7,30.9
2020-07-30T00:19:00Z,00000380,00000600,0000.86,0000.65,0000.65,-000.33,0000.05,-000.19,0000.13,-000.05,0000.00,24.5,04.0,0670.7,30.9
2020-07-30T00:20:00Z,00000380,00000600,0000.82,0000.66,-000.12,0000.00,-000.21,-000.39,0000.07,0000.20,0000.04,24.5,04.0,0670.7,30.9
2020-07-30T00:21:00Z,00000380,00000600,0000.88,-000.19,0000.69,0000.71,0000.48,-000.28,0000.08,-000.11,0000.03,24.5,04.0,0670.7,30.9
2020-07-30T00:22:00Z,00000380,00000600,0000.29,0000.14,0000.95,0000.65,0000.81,0000.22,-000.03,0000.08,0000.09,24.5,04.1,0670.7,30.9
2020-07-30T00:23:00Z,00000380,00000600,0001.46,0000.88,0000.24,0000.35,0000.30,-000.16,-000.08,-000.03,-000.06,24.4,04.1,0670.7,30.9
2020-07-30T00:24:00Z,00000380,00000600,0001.40,0000.97,0000.37,0000.36,0000.10,0000.04,0000.04,-000.06,-000.00,24.4,04.0,0670.8,30.9
2020-07-30T00:25:00Z,00000380,00000600,-000.57,0000.51,0000.42,0000.97,0000.51,-000.10,-000.14,-000.05,-000.17,24.4,03.9,0670.8,30.9
2020-07-30T00:26:00Z,00000380,00000600,0001.49,0000.81,0000.52,-000.26,-000.17,-000.10,-000.12,-000.06,-000.01,24.4,03.9,0670.8,30.9
2020-07-30T00:27:00Z,00000380,00000600,-000.01,0000.41,0000.31,0000.61,0000.15,0000.21,-000.06,-000.10,0000.03,24.4,03.6,0670.8,30.9
2020-07-30T00:28:00Z,00000380,00000600,0001.26,0000.54,0000.46,0000.41,0000.28,0000.01,0000.05,0000.07,-000.07,24.4,03.6,0670.8,30.9
2020-07-30T00:29:00Z,00000380,00000600,0000.11,0001.01,-000.03,-000.18,-000.31,0000.04,0000.23,0000.19,0000.13,24.4,03.7,0670.8,30.9
2020-07-30T00:30:00Z,00000380,00000600,0000.22,0000.98,0000.95,0000.42,0000.28,0000.35,0000.11,0000.09,0000.13,24.4,03.9,0670.8,30.9
2020-07-30T00:31:00Z,00000380,00000600,0001.80,0000.54,0000.42,0001.20,0000.41,0000.23,-000.01,0000.04,-000.05,24.4,03.8,0670.8,30.9
2020-07-30T00:32:00Z,00000380,00000600,-000.07,0000.62,0000.99,0000.32,0000.17,0000.49,-000.08,-000.23,-000.05,24.4,03.7,0670.8,30.9
2020-07-30T00:33:00Z,00000380,00000600,0000.76,0000.87,0000.01,-000.17,0000.51,-000.03,0000.16,0000.28,0000.19,24.4,03.9,0670.7,30.9
2020-07-30T00:34:00Z,00000380,00000600,0000.77,0000.50,0000.19,-000.22,0000.36,-000.33,0000.18,0000.14,0000.13,24.4,04.0,0670.7,30.9
2020-07-30T00:35:00Z,00000380,00000600,0001.33,-000.09,0000.08,0000.74,0000.56,-000.06,0000.09,-000.03,-000.03,24.4,04.2,0670.7,30.9
2020-07-30T00:36:00Z,00000380,00000600,0000.34,0001.02,0000.59,0000.34,0000.14,-000.10,0000.10,0000.08,-000.16,24.4,04.2,0670.7,30.9
2020-07-30T00:37:00Z,00000380,00000600,0000.64,0000.67,0000.29,0000.24,0000.34,0000.12,-000.03,-000.06,0000.13,24.3,04.1,0670.7,30.9
2020-07-30T00:38:00Z,00000380,00000600,-000.36,0000.71,0000.08,0000.33,0000.24,-000.33,-000.05,0000.10,0000.08,24.3,04.1,0670.7,30.9
2020-07-30T00:39:00Z,00000380,00000600,-000.20,0000.39,0000.39,0000.70,0000.23,-000.27,-000.05,-000.13,-000.12,24.3,04.1,0670.7,30.9
2020-07-30T00:40:00Z,00000380,00000600,0001.46,0000.67,0000.64,-000.05,-000.01,0000.41,-000.08,0000.12,0000.02,24.3,04.0,0670.7,30.9
2020-07-30T00:41:00Z,00000380,00000600,-000.35,0000.42,0000.35,0000.52,0000.29,0000.08,0000.02,-000.20,0000.04,24.3,04.0,0670.7,30.9
2020-07-30T00:42:00Z,00000380,00000600,0002.07,0000.51,0000.57,-000.50,0000.32,-000.17,-000.04,0000.13,-000.05,24.3,03.9,0670.7,30.9
2020-07-30T00:43:00Z,00000380,00000600,-000.29,0000.76,0000.55,0000.13,0000.07,-000.06,-000.09,-000.05,0000.00,24.3,03.9,0670.7,30.9
2020-07-30T00:44:00Z,00000380,00000600,0001.12,0000.92,0000.26,0000.13,0000.05,0000.03,0000.13,0000.12,0000.05,24.3,03.8,0670.6,30.9
2020-07-30T00:45:00Z,00000380,00000600,0001.22,0000.63,0000.01,-000.56,0000.16,-000.16,0000.24,0000.25,0000.08,24.3,04.0,0670.6,30.9
2020-07-30T00:46:00Z,00000380,00000600,0000.19,0000.76,-000.03,0000.85,0000.30,-000.18,-000.22,-000.27,-000.04,24.3,03.9,0670.6,30.9
2020-07-30T00:47:00Z,00000380,00000600,0000.33,0000.42,0000.22,0000.83,0000.35,0000.14,0000.02,0000.08,-000.01,24.3,03.9,0670.6,30.9
2020-07-30T00:48:00Z,00000380,00000600,0000.89,0000.69,0000.69,0000.92,0000.41,-000.16,0000.15,-000.05,0000.11,24.3,04.0,0670.6,30.9
2020-07-30T00:49:00Z,00000380,00000600,0000.68,0000.25,0001.00,0000.78,0000.43,0000.10,-000.14,0000.07,-000.08,24.3,04.0,0670.6,30.9
2020-07-30T00:50:00Z,00000380,00000600,0000.54,0000.77,0000.50,-000.55,0000.06,-000.18,0000.28,0000.11,0000.14,24.3,03.9,0670.5,30.9
2020-07-30T00:51:00Z,00000380,00000600,0001.42,0000.56,0000.04,0000.65,0000.71,0000.04,0000.04,0000.07,0000.03,24.3,04.1,0670.5,30.9
2020-07-30T00:52:00Z,00000380,00000600,-000.15,0000.33,0000.40,0000.73,0000.12,-000.07,-000.27,-000.24,-000.02,24.2,04.1,0670.5,30.9
2020-07-30T00:53:00Z,00000380,00000600,0000.63,0000.58,0000.10,-000.57,0000.14,0000.09,0000.22,0000.22,-000.07,24.2,03.9,0670.5,30.9
2020-07-30T00:54:00Z,00000380,00000600,0000.89,0000.17,0000.11,0001.19,0000.20,-000.37,0000.03,0000.04,0000.03,24.2,03.9,0670.5,30.9
2020-07-30T00:55:00Z,00000380,00000600,0000.97,0000.37,0000.20,0000.66,0000.25,-000.50,0000.03,-000.05,0000.12,24.2,03.9,0670.5,30.9
2020-07-30T00:56:00Z,00000380,00000600,0000.42,0000.86,0000.46,-000.70,0000.33,-000.32,0000.14,-000.01,-000.04,24.2,03.9,0670.4,30.9
2020-07-30T00:57:00Z,00000380,40000600,,,,,,,,,,24.2,04.1,0670.5,30.9
2020-07-30T00:58:00Z,00000380,60000600,,,,,,,,,,24.3,03.8,0669.5,30.9
2020-07-30T00:59:00Z,00000380,20000600,,,,,,,,,,24.4,03.7,0669.4,30.9
2020-07-30T01:00:00Z,00000380,20000600,,,,,,,,,,24.4,03.7,0669.4,30.9
2020-07-30T01:01:00Z,00000380,20000600,,,,,,,,,,24.4,03.7,0669.5,30.9
2020-07-30T01:02:00Z,00000380,20000600,,,,,,,,,,24.4,03.5,0669.5,30.9
2020-07-30T01:03:00Z,00000380,60000600,,,,,,,,,,24.4,03.5,0669.4,30.9
2020-07-30T01:04:00Z,00000380,40000600,0000.42,0000.02,0000.75,0000.60,-000.15,0000.44,0000.27,0000.22,-000.03,24.3,03.4,0670.2,30.9
2020-07-30T01:05:00Z,00000380,00000600,0000.54,0000.54,0000.25,0000.10,0000.04,-000.03,0000.03,0000.03,0000.17,24.2,03.6,0670.2,30.9
2020-07-30T01:06:00Z,00000380,00000600,0000.60,0000.34,0000.30,0000.23,0000.08,0000.16,0000.12,0000.16,0000.11,24.2,03.8,0670.2,30.9
2020-07-30T01:07:00Z,00000380,00000600,-000.05,0000.17,0000.42,-000.48,0000.29,0000.51,-000.11,-000.05,-000.04,24.2,03.6,0670.2,30.9
2020-07-30T01:08:00Z,00000380,00000600,-000.15,-000.28,-000.08,0000.04,0000.13,0000.38,-000.24,-000.23,-000.17,24.2,03.5,0670.2,30.9
2020-07-30T01:09:00Z,00000380,00000600,0000.63,0000.65,0000.35,-000.38,0000.09,0000.26,-000.01,-000.08,-000.04,24.2,03.3,0670.2,30.9
2020-07-30T01:10:00Z,00000380,00000600,0000.14,0000.29,-000.10,-000.51,-000.13,-000.03,-000.31,-000.13,-000.14,24.2,03.1,0670.2,30.9
2020-07-30T01:11:00Z,00000380,00000600,0001.10,0000.21,-000.17,-000.59,0000.20,-000.16,0000.14,0000.01,0000.02,24.2,03.1,0670.1,30.9
2020-07-30T01:12:00Z,00000380,00000600,0000.44,0000.59,-000.35,0000.10,-000.15,0000.01,0000.03,0000.01,0000.18,24.1,03.2,0670.1,30.9
2020-07-30T01:13:00Z,00000380,00000600,0000.18,-000.13,0000.07,0000.24,0000.31,0000.17,0000.10,0000.20,0000.07,24.1,03.1,0670.1,30.9
2020-07-30T01:14:00Z,00000380,00000600,-000.01,0000.16,-000.00,0000.03,-000.16,0000.03,0000.20,0000.16,0000.08,24.1,03.2,0670.0,30.9
2020-07-30T01:15:00Z,00000380,00000600,0000.53,0001.00,0000.10,-000.57,-000.06,0000.30,0000.23,0000.27,0000.06,24.1,03.7,0670.1,30.9
2020-07-30T01:16:00Z,00000380,00000600,0001.37,0000.29,0000.75,0000.18,0000.60,0000.27,0001.10,0000.85,0000.60,24.1,03.7,0670.1,30.9
2020-07-30T01:17:00Z,00000380,00000600,0000.02,0000.26,-000.07,-000.03,0000.12,-000.07,-000.93,-001.00,-000.49,24.1,04.0,0670.1,30.9
2020-07-30T01:18:00Z,00000380,00010600,0000.65,0000.22,0000.50,-000.44,0000.21,0000.21,0000.00,0000.12,-000.01,24.1,03.4,0670.1,30.9
2020-07-30T01:19:00Z,00000380,00000600,0000.77,0000.80,0000.42,0000.08,-000.23,0000.20,-000.31,-000.23,-000.06,24.1,03.4,0670.1,30.9
2020-07-30T01:20:00Z,00000380,00000600,0000.38,0000.23,0000.12,-000.66,-000.08,0000.39,-000.17,-000.03,-000.09,24.1,03.2,0670.1,30.9
2020-07-30T01:21:00Z,00000380,00000600,0000.26,-000.04,-000.10,0000.19,0000.28,0000.44,0000.05,-000.06,0000.05,24.1,03.1,0670.0,30.9
2020-07-30T01:22:00Z,00000380,00000600,0000.77,0000.56,0000.27,-000.20,-000.07,0000.38,0000.10,0000.13,0000.03,24.0,03.1,0670.0,30.9
2020-07-30T01:23:00Z,00000380,00000600,0000.89,0000.34,-000.09,0000.14,0000.07,0000.30,-000.12,0000.01,-000.02,24.0,03.0,0670.0,30.9
2020-07-30T01:24:00Z,00000380,00000600,0000.29,0000.34,0000.82,-000.25,0000.13,0000.29,0000.53,0000.33,0000.20,24.0,03.0,0670.0,30.9
2020-07-30T01:25:00Z,00000380,00000600,0001.08,0000.46,0000.60,0000.14,0000.66,0000.29,-000.53,-000.37,-000.17,24.0,03.1,0670.0,30.9
2020-07-30T01:26:00Z,00000380,00000600,0001.48,0000.97,0000.88,-000.24,0000.19,0000.35,0000.33,0000.22,0000.20,24.0,03.5,0670.0,30.9
2020-07-30T01:27:00Z,00000380,00000600,0000.25,0000.39,0000.39,0000.57,0000.27,0000.32,-000.26,-000.31,-000.25,24.0,03.0,0669.9,30.9
2020-07-30T01:28:00Z,00000380,00000600,0001.16,0000.27,-000.04,-000.41,-000.16,0000.41,-000.14,0000.09,0000.05,24.0,02.7,0669.9,30.9
2020-07-30T01:29:00Z,00000380,00000600,0000.05,-000.11,0000.46,0000.25,0000.11,0000.06,-000.10,-000.11,-000.03,24.0,02.7,0669.9,30.9
2020-07-30T01:30:00Z,00000380,00000600,0000.45,0000.20,0000.41,-000.66,-000.21,0000.31,0000.03,0000.15,0000.01,24.0,02.9,0669.9,30.9
2020-07-30T01:31:00Z,00000380,00000600,0001.18,0000.79,0000.16,0000.28,0000.02,-000.12,0000.13,0000.03,-000.01,24.0,02.7,0669.9,30.9
2020-07-30T01:32:00Z,00000380,00000600,0000.19,0000.52,0000.16,-000.29,0000.33,0000.21,0000.05,-000.08,0000.14,24.0,02.8,0669.9,30.9
2020-07-30T01:33:00Z,00000380,00000600,0000.73,0000.99,0000.55,-000.25,0000.37,0000.49,0000.44,0000.38,0000.17,24.0,03.3,0669.9,30.9
2020-07-30T01:34:00Z,00000380,00000600,0000.06,0000.41,0000.28,-000.28,0000.25,0000.29,-000.19,-000.06,-000.09,24.0,02.9,0669.8,30.9
2020-07-30T01:35:00Z,00000380,00000600,0000.44,0000.03,0000.24,0000.41,0000.08,-000.01,0000.54,0000.35,0000.36,24.0,02.8,0669.8,30.9
2020-07-30T01:36:00Z,00000380,00000600,0000.96,0000.28,0000.27,0000.07,-000.08,0000.18,-000.17,-000.15,-000.09,23.9,03.1,0669.9,30.9
2020-07-30T01:37:00Z,00000380,00000600,0001.08,0000.07,0000.43,0000.22,0000.02,-000.06,-000.25,-000.17,-000.22,23.9,03.1,0669.8,30.9
2020-07-30T01:38:00Z,00000380,00000600,0000.14,0000.37,0000.57,0000.31,-000.08,0000.21,0001.54,0001.39,0000.97,23.9,02.8,0669.8,30.9
2020-07-30T01:39:00Z,00000380,00000600,0000.38,0000.41,0000.36,0000.56,0000.37,-000.05,-000.21,-000.18,-000.17,23.9,04.9,0670.0,30.9
2020-07-30T01:40:00Z,00000380,00000600,-000.08,0000.11,-000.02,0000.15,-000.08,0000.30,-000.65,-000.68,-000.30,23.9,03.6,0670.0,30.9
2020-07-30T01:41:00Z,00000380,00000600,-000.40,0000.03,0000.30,-000.10,0000.08,-000.14,-000.04,-000.04,-000.12,23.9,03.1,0670.0,30.9
2020-07-30T01:42:00Z,00000380,00000600,0000.91,0000.33,0000.40,-000.80,-000.25,0000.14,-000.09,-000.09,0000.06,23.9,03.1,0670.0,30.9
2020-07-30T01:43:00Z,00000380,00000600,0000.48,-000.20,0000.04,-000.83,0000.30,-000.02,-000.07,-000.10,-000.09,23.9,03.0,0670.0,30.9
2020-07-30T01:44:00Z,00000380,00000600,0000.25,-000.20,0000.73,0000.04,0000.21,0000.06,0000.04,0000.10,-000.03,23.9,02.9,0670.0,30.8
2020-07-30T01:45:00Z,00000380,00000600,0000.15,0000.01,0000.59,0000.84,0000.15,0000.37,-000.01,-000.01,0000.11,23.9,02.9,0670.0,30.9
2020-07-30T01:46:00Z,00000380,00000600,0000.38,0000.18,0000.37,0000.08,0000.50,0000.03,0000.45,0000.47,0000.27,23.8,02.9,0670.0,30.9
2020-07-30T01:47:00Z,00000380,00000600,0000.59,0000.30,-000.31,-000.70,0000.02,0000.10,-000.35,-000.23,-000.18,23.8,03.1,0670.0,30.9
2020-07-30T01:48:00Z,00000380,00000600,0000.97,0000.43,0000.03,0000.23,0000.05,0000.24,0001.13,0000.96,0000.60,23.8,02.9,0670.0,30.9
2020-07-30T01:49:00Z,00000380,00000600,0000.81,0000.21,-000.00,-000.04,0000.10,0000.00,-000.86,-000.77,-000.48,23.8,03.5,0670.0,30.9
2020-07-30T01:50:00Z,00000380,00000600,0001.01,0000.26,0000.30,-000.37,-000.07,0000.47,-000.06,-000.10,-000.07,23.8,03.0,0670.0,30.9
2020-07-30T01:51:00Z,00000380,00000600,-000.39,0000.23,0000.58,-000.00,0000.09,0000.17,-000.03,-000.08,0000.08,23.8,03.0,0670.0,30.9
2020-07-30T01:52:00Z,00000380,00000600,0001.04,0000.25,0000.06,-000.56,-000.06,0000.41,-000.06,0000.10,-000.10,23.8,03.0,0669.9,30.9
2020-07-30T01:53:00Z,00000380,00000600,-001.07,0000.42,-000.30,-000.13,0000.07,0000.07,0000.14,-000.02,0000.12,23.8,03.0,0669.9,30.9
2020-07-30T01:54:00Z,00000380,00000600,0001.36,0000.38,-000.02,0000.95,-000.14,-000.08,0000.08,0000.15,-000.05,23.8,03.0,0669.9,30.9
2020-07-30T01:55:00Z,00000380,00000600,0000.37,0000.21,0000.15,-000.03,0000.03,0000.23,0000.69,0000.60,0000.57,23.8,03.1,0669.9,30.9
2020-07-30T01:56:00Z,00000380,00000600,0000.64,0000.56,-000.16,0000.15,0000.15,0000.23,-000.42,-000.37,-000.24,23.8,03.3,0670.0,30.9
2020-07-30T01:57:00Z,00000380,40000600,,,,,,,,,,23.8,03.3,0670.0,30.8
2020-07-30T01:58:00Z,00000380,60000600,,,,,,,,,,23.9,03.1,0669.0,30.9
2020-07-30T01:59:00Z,00000380,20000600,,,,,,,,,,24.0,03.0,0668.9,30.9
2020-07-30T02:00:00Z,00000380,20000600,,,,,,,,,,24.0,03.0,0668.9,30.9
2020-07-30T02:01:00Z,00000380,20000600,,,,,,,,,,24.0,02.8,0668.9,30.9
2020-07-30T02:02:00Z,00000380,20000600,,,,,,,,,,24.0,02.8,0668.9,30.9
2020-07-30T02:03:00Z,00000380,60000600,,,,,,,,,,24.0,02.8,0668.9,30.9
2020-07-30T02:04:00Z,00000380,40000600,0001.69,0000.78,0000.43,-000.42,0000.28,0000.16,-000.07,0000.15,0000.06,24.0,03.0,0669.9,30.9
2020-07-30T02:05:00Z,00000380,00000600,0001.03,0000.41,-000.22,-000.35,0000.26,0000.38,0000.21,0000.15,0000.07,24.0,03.1,0669.9,30.9
2020-07-30T02:06:00Z,00000380,00000600,0000.66,0000.26,0000.47,-000.16,0000.31,0000.14,0000.02,-000.03,0000.01,23.9,03.2,0669.9,30.9
2020-07-30T02:07:00Z,00000380,00000600,0000.58,0000.58,0000.07,-000.59,0000.30,0000.15,0000.07,0000.04,-000.03,23.9,03.1,0669.9,30.9
2020-07-30T02:08:00Z,00000380,00000600,0000.73,-000.00,0000.32,-000.55,0000.30,0000.46,0000.04,0000.01,0000.15,23.9,03.2,0669.8,30.9
2020-07-30T02:09:00Z,00000380,00000600,0001.67,0000.75,0000.33,-000.79,0000.54,0000.13,0000.11,0000.12,0000.06,23.9,03.2,0669.9,30.9
2020-07-30T02:10:00Z,00000380,00000600,0000.37,0000.25,0000.12,0000.19,0000.23,0000.28,0000.10,0000.05,-000.01,23.8,03.3,0669.8,30.9
2020-07-30T02:11:00Z,00000380,00000600,0000.36,0000.39,-000.00,0000.32,0000.52,0000.47,0000.01,0000.02,0000.03,23.8,03.3,0669.8,30.9
2020-07-30T02:12:00Z,00000380,00000600,0000.72,0000.50,0000.37,-000.53,0000.40,0000.20,-000.06,0000.00,0000.01,23.8,03.3,0669.9,30.9
2020-07-30T02:13:00Z,00000380,00000600,0001.36,0000.07,0000.38,0000.11,0000.32,0000.20,0000.12,0000.00,0000.14,23.8,03.4,0669.9,30.9
2020-07-30T02:14:00Z,00000380,00000600,0000.59,0000.22,0000.05,0000.27,-000.02,0000.24,-000.01,0000.09,0000.03,23.8,03.3,0669.9,30.9
2020-07-30T02:15:00Z,00000380,00000600,0001.28,0000.46,-000.02,0000.30,0000.08,0000.69,0000.02,0000.00,-000.02,23.8,03.4,0669.9,30.9
2020-07-30T02:16:00Z,00000380,00000600,0001.22,0000.09,0000.44,0000.14,0000.24,0000.05,0000.12,0000.07,-000.03,23.8,03.3,0669.9,30.9
2020-07-30T02:17:00Z,00000380,00000600,0001.68,0000.24,0000.03,-000.09,0000.14,0000.34,0000.01,0000.06,0000.06,23.9,03.4,0669.9,30.9
2020-07-30T02:18:00Z,00000380,00000600,0000.66,0000.38,0000.10,0000.85,-000.28,0000.28,0000.04,0000.07,0000.12,23.9,03.4,0669.9,30.9
2020-07-30T02:19:00Z,00000380,00000600,0001.79,0000.36,-000.16,0000.22,0000.06,0000.23,0000.03,0000.04,-000.01,23.9,03.4,0669.9,30.9
2020-07-30T02:20:00Z,00000380,00000600,0000.62,0000.35,0000.05,0000.05,0000.24,0000.31,0000.16,0000.20,0000.09,23.9,03.5,0669.9,30.9
2020-07-30T02:21:00Z,00000380,00000600,0000.75,0000.32,0000.07,-000.21,0000.16,-000.15,-000.17,-000.08,-000.00,23.9,03.5,0669.9,30.9
2020-07-30T02:22:00Z,00000380,00000600,0001.20,0000.31,0000.14,0000.09,0000.23,0000.19,0000.29,0000.16,0000.05,23.9,03.5,0669.9,30.9
2020-07-30T02:23:00Z,00000380,00000600,0000.38,0001.09,0000.18,-000.06,0000.14,0000.21,0000.01,0000.01,0000.12,23.9,03.6,0669.8,30.9
2020-07-30T02:24:00Z,00000380,00000600,0001.57,0000.27,-000.05,0000.72,-000.26,0000.28,0000.05,0000.15,0000.17,23.9,03.7,0669.8,30.9
2020-07-30T02:25:00Z,00000380,00000600,0000.89,0000.29,0000.03,-000.68,0000.16,0000.50,0000.27,0000.06,-000.11,23.8,03.7,0669.8,30.9
2020-07-30T02:26:00Z,00000380,00000600,0000.56,-000.03,-000.36,-000.05,0000.17,0000.04,-000.01,0000.15,0000.23,23.8,03.8,0669.8,30.9
2020-07-30T02:27:00Z,00000380,00000600,0001.13,0000.39,-000.34,-000.74,0000.60,0000.08,0000.14,0000.08,-000.02,23.8,03.8,0669.8,30.9
2020-07-30T02:28:00Z,00000380,00000600,0001.46,0000.39,0000.21,0000.05,0000.09,0000.00,0000.08,0000.06,-000.00,23.8,03.9,0669.8,30.9
2020-07-30T02:29:00Z,00000380,00000600,0001.33,0000.42,0000.33,-000.27,0000.22,-000.07,0000.16,0000.15,0000.13,23.8,04.0,0669.8,30.9
2020-07-30T02:30:00Z,00000380,00000600,0000.73,0000.06,-000.04,0000.30,0000.21,0000.18,0000.02,0000.00,0000.12,23.8,04.0,0669.8,30.9
2020-07-30T02:31:00Z,00000380,00000600,0001.25,0000.69,0000.09,-000.39,0000.28,0000.28,-000.01,-000.01,0000.08,23.8,04.2,0669.8,30.9
2020-07-30T02:32:00Z,00000380,00000600,0001.62,-000.03,0000.12,0000.22,0000.18,0000.60,0000.10,0000.12,-000.03,23.9,04.2,0669.8,30.9
2020-07-30T02:33:00Z,00000380,00000600,0000.63,-000.15,0000.05,-000.56,0000.43,0000.04,0000.14,0000.05,0000.06,23.9,04.2,0669.9,30.9
2020-07-30T02:34:00Z,00000380,00000600,0000.82,0000.33,0000.09,-000.34,0000.71,-000.02,-000.03,0000.08,0000.15,23.9,04.3,0669.9,30.9
2020-07-30T02:35:00Z,00000380,00000600,0001.37,-000.10,0000.36,0000.02,0000.18,0000.25,0000.21,0000.18,0000.02,23.9,04.3,0669.8,30.9
2020-07-30T02:36:00Z,00000380,00000600,0000.34,-000.02,0000.54,-000.31,0000.21,0000.41,-000.09,0000.05,-000.07,23.8,04.3,0669.9,30.9
2020-07-30T02:37:00Z,00000380,00000600,0001.21,0000.64,-000.17,0000.02,0000.14,-000.01,0000.24,-000.01,0000.05,23.9,04.4,0669.9,30.9
2020-07-30T02:38:00Z,00000380,00000600,0001.53,0000.05,-000.15,-000.48,0000.26,0000.50,0000.06,0000.22,0000.08,23.9,04.4,0669.8,30.9
2020-07-30T02:39:00Z,00000380,00000600,0001.00,0000.17,0000.64,-000.39,-000.13,0000.41,0000.16,0000.05,0000.05,23.8,04.5,0669.8,30.9
2020-07-30T02:40:00Z,00000380,00000600,0000.86,0000.32,-000.23,0000.11,-000.04,0000.05,0000.06,0000.11,0000.24,23.8,04.6,0669.8,30.9
2020-07-30T02:41:00Z,00000380,00000600,0000.12,0000.57,0000.20,-000.16,0000.11,-000.01,0000.11,0000.04,-000.04,23.8,04.6,0669.9,30.9
2020-07-30T02:42:00Z,00000380,00000600,0001.05,0000.53,-000.11,-000.23,0000.63,-000.13,-000.01,0000.06,0000.10,23.8,04.6,0669.8,30.9
2020-07-30T02:43:00Z,00000380,00000600,0001.25,-000.08,0000.32,0000.12,0000.03,0000.45,0000.08,0000.16,-000.03,23.8,04.8,0669.8,30.9
2020-07-30T02:44:00Z,00000380,00000600,0001.55,0000.19,-000.09,-000.82,0000.16,0000.34,0000.11,0000.19,0000.15,23.8,04.9,0669.8,30.9
2020-07-30T02:45:00Z,00000380,00000600,0000.78,0000.07,0000.21,0000.74,-000.15,0000.60,0000.19,-000.09,-000.06,23.8,04.9,0669.8,30.9
2020-07-30T02:46:00Z,00000380,00000600,0000.66,0000.58,0000.03,0000.04,0000.52,0000.21,0000.10,-000.01,0000.05,23.8,04.8,0669.8,30.9
2020-07-30T02:47:00Z,00000380,00000600,0000.78,0000.30,0000.02,-000.04,0000.49,0000.30,-000.15,0000.08,0000.02,23.8,04.8,0669.8,30.9
2020-07-30T02:48:00Z,00000380,00000600,0001.02,0000.39,-000.30,-000.33,0000.41,-000.12,0000.05,0000.03,0000.06,23.7,04.8,0669.8,30.9
2020-07-30T02:49:00Z,00000380,00000600,0000.17,0000.62,0000.22,-000.24,0000.36,0000.11,-000.01,-000.05,0000.07,23.7,04.8,0669.8,30.9
2020-07-30T02:50:00Z,00000380,00000600,0002.07,0000.63,0000.08,0000.15,0000.10,0000.12,0000.10,0000.15,-000.05,23.7,04.9,0669.8,30.9
2020-07-30T02:51:00Z,00000380,00000600,0001.26,0000.71,0000.05,-000.46,0000.42,0000.26,0000.04,-000.02,0000.09,23.7,04.8,0669.8,30.9
2020-07-30T02:52:00Z,00000380,00000600,0001.37,0000.22,-000.23,0000.21,0000.15,0000.32,0000.02,-000.04,-000.09,23.7,04.8,0669.8,30.8
2020-07-30T02:53:00Z,00000380,00000600,0002.20,0000.70,-000.05,0000.61,0000.33,-000.15,0000.14,0000.15,0000.12,23.7,04.9,0669.8,30.8
2020-07-30T02:54:00Z,00000380,00000600,0000.82,0000.40,0000.29,-000.12,0000.10,0000.33,-000.10,0000.02,0000.15,23.7,04.9,0669.8,30.8
2020-07-30T02:55:00Z,00000380,00000600,0001.28,0000.53,-000.00,-000.25,0000.31,-000.02,0000.12,-000.00,0000.02,23.7,04.9,0669.8,30.8
2020-07-30T02:56:00Z,00000380,00000600,0001.62,0000.22,-000.00,0000.24,0000.22,0000.43,-000.08,0000.22,0000.00,23.7,05.0,0669.8,30.9
2020-07-30T02:57:00Z,00000380,40000600,,,,,,,,,,23.7,05.0,0669.9,30.9
2020-07-30T02:58:00Z,00000380,60000600,,,,,,,,,,23.8,04.6,0668.9,30.9
2020-07-30T02:59:00Z,00000380,20000600,,,,,,,,,,23.9,04.6,0668.8,30.8
2020-07-30T03:00:00Z,00000380,20000600,,,,,,,,,,23.9,04.6,0668.8,30.9
2020-07-30T03:01:00Z,00000380,20000600,,,,,,,,,,23.9,04.6,0668.8,30.9
2020-07-30T03:02:00Z,00000380,20000600,,,,,,,,,,23.9,04.6,0668.8,30.9
2020-07-30T03:03:00Z,00000380,60000600,,,,,,,,,,24.0,04.6,0668.8,30.9
2020-07-30T03:04:00Z,00000380,40000600,0001.16,-000.12,0000.05,-000.20,0000.15,-000.44,0000.05,-000.02,0000.24,23.9,04.7,0669.7,30.9
2020-07-30T03:05:00Z,00000380,00000600,0000.24,0000.72,0000.25,0000.30,-000.21,0000.01,0000.01,-000.05,0000.02,23.9,04.7,0669.8,31.0
2020-07-30T03:06:00Z,00000380,00000600,0000.41,0000.12,0000.12,-000.75,-000.08,0000.04,-000.13,-000.06,-000.10,23.9,04.6,0669.8,30.9
2020-07-30T03:07:00Z,00000380,00000600,0000.41,0000.09,0000.63,0000.03,-000.01,-000.05,0000.15,0000.12,0000.14,23.9,04.6,0669.8,30.9
2020-07-30T03:08:00Z,00000380,00000600,0000.35,0000.82,0000.27,-000.44,0000.27,0000.13,0000.07,-000.03,0000.03,23.9,04.6,0669.9,30.9
2020-07-30T03:09:00Z,00000380,00000600,0001.10,0000.91,0000.05,0000.82,0000.28,-000.32,0000.09,0000.16,-000.04,23.9,04.7,0669.9,30.9
2020-07-30T03:10:00Z,00000380,00000600,0000.50,0000.23,0000.11,-000.65,0000.15,0000.05,-000.07,0000.02,0000.03,23.8,04.6,0669.9,30.9